This demonstration page uses our WeatherBlox Daily Observations layout. Learn more.

Left ArrowRight Arrow

39.29038, -76.61219

Hourly Observations for April 29, 2022

Temp ( °F °C ) Dew Point ( °F °C ) Humidity (%) Winds ( mph kmh ) Pressure ( in mb ) Visibility ( mi km ) Precip ( " mm )
12:54 am 00:54 Clear 48 8.9 23 -5 37 37 NW 3 6 30.17 1022 10 16 0.00 0.00
1:54 am 01:54 Clear 43 6.1 24 -4.4 47 47 Calm 30.17 1022 10 16 0.00 0.00
2:54 am 02:54 Clear 42 5.6 25 -3.9 51 51 Calm 30.18 1022 10 16 0.00 0.00
3:54 am 03:54 Clear 34 1.1 26 -3.3 73 73 W 3 6 30.20 1023 10 16 0.00 0.00
4:54 am 04:54 Mostly Clear 36 2.2 26 -3.3 67 67 WSW 3 6 30.20 1023 10 16 0.00 0.00
5:54 am 05:54 Mostly Cloudy 36 2.2 26 -3.3 67 67 NW 5 7 30.21 1023 10 16 0.00 0.00
6:54 am 06:54 Mostly Cloudy 36 2.2 27 -2.8 70 70 W 5 7 30.23 1024 10 16 0.00 0.00
7:54 am 07:54 Mostly Cloudy 43 6.1 28 -2.2 56 56 Calm 30.25 1025 10 16 0.00 0.00
8:54 am 08:54 Partly Cloudy 49 9.4 19 -7.2 31 31 N 10 17 30.25 1024 10 16 0.00 0.00
9:54 am 09:54 Partly Cloudy 53 11.7 16 -8.9 23 23 N 7 11 30.24 1024 10 16 0.00 0.00
10:54 am 10:54 Partly Cloudy 57 13.9 15 -9.4 19 19 N 9 15 30.23 1024 10 16 0.00 0.00
11:54 am 11:54 Mostly Sunny 59 15 15 -9.4 18 18 NNW 8 13 30.21 1023 10 16 0.00 0.00
12:54 pm 12:54 Mostly Sunny 60 15.6 19 -7.2 20 20 W 14 22 30.17 1022 10 16 0.00 0.00
1:54 pm 13:54 Sunny 63 17.2 17 -8.3 17 17 W 15 24 30.14 1021 10 16 0.00 0.00
2:54 pm 14:54 Sunny 64 17.8 18 -7.8 17 17 WNW 8 13 30.12 1020 10 16 0.00 0.00
3:54 pm 15:54 Sunny 66 18.9 17 -8.3 15 15 NNW 12 19 30.10 1019 10 16 0.00 0.00
4:54 pm 16:54 Sunny 66 18.9 21 -6.1 18 18 W 15 24 30.10 1019 10 16 0.00 0.00
5:54 pm 17:54 Mostly Sunny 65 18.3 20 -6.7 18 18 WNW 13 20 30.09 1019 10 16 0.00 0.00
6:54 pm 18:54 Mostly Sunny 63 17.2 20 -6.7 19 19 WNW 9 15 30.08 1019 10 16 0.00 0.00
7:54 pm 19:54 Partly Cloudy 60 15.6 19 -7.2 20 20 WNW 6 9 30.09 1019 10 16 0.00 0.00
8:54 pm 20:54 Partly Cloudy 56 13.3 24 -4.4 29 29 Calm 30.10 1019 10 16 0.00 0.00
9:54 pm 21:54 Mostly Clear 48 8.9 27 -2.8 44 44 WSW 5 7 30.13 1020 10 16 0.00 0.00
10:54 pm 22:54 Clear 48 8.9 28 -2.2 46 46 W 3 6 30.13 1020 10 16 0.00 0.00
11:54 pm 23:54 Clear 46 7.8 30 -1.1 54 54 Calm 30.14 1021 10 16 0.00 0.00

Powered by AerisWeather